Regional Weather Roundup
Issued by NWS

Home | Current Version | Previous Version | Graphics & Text | Print | Product List | Glossary On
Versions: 1 2 3 4 5 6 7 8 9 10 11 12 13 14 15 16 17 18 19 20 21 22 23 24 25 26 27 28 29 30 31 32 33 34 35 36 37 38 39 40 41 42 43 44 45 46 47 48 49 50
000
ASUS43 KBIS 041720
RWRND

NORTH DAKOTA REGIONAL WEATHER ROUNDUP
NATIONAL WEATHER SERVICE BISMARCK ND
1100 AM CST WED MAR 04 2015

NOTE: "FAIR" INDICATES FEW OR NO CLOUDS BELOW 12,000 FEET WITH NO
SIGNIFICANT WEATHER AND/OR OBSTRUCTIONS TO VISIBILITY.


NDZ001>003-009>011-017-041800-
NORTHWEST NORTH DAKOTA

CITY           SKY/WX    TMP DP  RH WIND       PRES   REMARKS
WILLISTON        N/A    N/A N/A N/A MISG      30.36R
MINOT          SUNNY     -6 -17  59 W20       30.31R WCI -30
MINOT AFB      SUNNY     -8 -17  65 NW18      30.30R WCI -31
$$

NDZ018>021-031>035-040>046-041800-
SOUTHWEST NORTH DAKOTA

CITY           SKY/WX    TMP DP  RH WIND       PRES   REMARKS
BISMARCK       PTSUNNY   -1 -15  51 NW20G29   30.33R WCI -23
DICKINSON      CLOUDY     1 -10  60 NW18G29   30.23R WCI -20
GARRISON         N/A     -7 -16  65 NW21      30.30R WCI -32
HETTINGER ARPT PTSUNNY    3 -10  54 NW21      30.24R WCI -18
$$

NDZ004>008-012>016-024-026-027-054-041800-
NORTHEAST NORTH DAKOTA

CITY           SKY/WX    TMP DP  RH WIND       PRES   REMARKS
GRAND FORKS    MOSUNNY   -1 -12  59 NW15G23   30.29R WCI -21
GRND FRKS AFB  SUNNY     -2 -15  52 N18G24    30.28R WCI -23
DEVILS LAKE    SUNNY     -6 -17  59 NW18      30.26R WCI -29
$$

NDZ022-023-025-028>030-036>039-047>053-041800-
SOUTHEAST NORTH DAKOTA

CITY           SKY/WX    TMP DP  RH WIND       PRES   REMARKS
FARGO          CLOUDY     0 -11  59 NW15      30.30R WCI -19
JAMESTOWN      CLOUDY    -4 -14  62 NW20G28   30.27R WCI -27
$$



USA.gov is the U.S. government's official web portal to all federal, state and local government web resources and services.